This is the latest recevied weather packets stored in our database for station/object KD8OZS. If no packets are shown the sender has not sent any weather packets the latest 10 day(s).
| Time | Temp. | Humidity | Pressure | Rain* | Wind** | Luminosity | Snow |
|---|---|---|---|---|---|---|---|
| 1777648477 | 6.67° C | 94% | 1004.3 hPa | 1.27 mm | - | 65 W/m² | - |
| 1777648173 | 6.67° C | 94% | 1004.5 hPa | 1.78 mm | - | 70 W/m² | - |
| 1777647868 | 6.67° C | 94% | 1004.5 hPa | 3.05 mm | - | 62 W/m² | - |
| 1777647565 | 6.67° C | 94% | 1004.3 hPa | 3.05 mm | - | 52 W/m² | - |
| 1777647261 | 6.67° C | 94% | 1004.5 hPa | 3.05 mm | - | 62 W/m² | - |
| 1777646960 | 6.67° C | 94% | 1004.5 hPa | 3.05 mm | - | 62 W/m² | - |
| 1777646655 | 6.67° C | 94% | 1004.5 hPa | 3.05 mm | - | 50 W/m² | - |
| 1777646351 | 6.67° C | 94% | 1004.6 hPa | 4.32 mm | - | 42 W/m² | - |
| 1777646047 | 6.67° C | 94% | 1004.6 hPa | 4.83 mm | - | 30 W/m² | - |
| 1777645744 | 6.67° C | 94% | 1004.6 hPa | 1.78 mm | - | 25 W/m² | - |
| 1777645441 | 6.67° C | 94% | 1004.2 hPa | 0 mm | - | 47 W/m² | - |
| 1777645136 | 6.67° C | 94% | 1004.5 hPa | 0 mm | - | 60 W/m² | - |
| 1777644833 | 6.67° C | 94% | 1004.3 hPa | 1.78 mm | - | 72 W/m² | - |
| 1777644531 | 6.67° C | 95% | 1004.7 hPa | 4.83 mm | - | 44 W/m² | - |
| 1777644227 | 6.67° C | 95% | 1005 hPa | 3.05 mm | - | 33 W/m² | - |
| 1777643923 | 6.67° C | 95% | 1005 hPa | 1.27 mm | - | 42 W/m² | - |
| 1777643622 | 6.67° C | 95% | 1004.9 hPa | 1.27 mm | - | 33 W/m² | - |
| 1777643318 | 6.67° C | 94% | 1005 hPa | 0 mm | - | 29 W/m² | - |
| 1777643015 | 6.67° C | 94% | 1004.9 hPa | 0 mm | - | 26 W/m² | - |
| 1777642711 | 6.11° C | 94% | 1005.1 hPa | 0 mm | - | 31 W/m² | - |
| 1777642408 | 6.11° C | 94% | 1004.7 hPa | 0 mm | - | 35 W/m² | - |
| 1777642105 | 6.11° C | 94% | 1004.5 hPa | 1.78 mm | - | 33 W/m² | - |
| 1777641801 | 6.11° C | 95% | 1004.7 hPa | 1.78 mm | - | 29 W/m² | - |
| 1777641496 | 6.11° C | 95% | 1004.9 hPa | 0 mm | - | 39 W/m² | - |
| 1777641191 | 6.11° C | 95% | 1004.8 hPa | 0 mm | - | 39 W/m² | - |
* Rain latest hour (hover to see other rain measurements)
** Current wind speed in m/s (hover to see current wind gust speed)